User: anonymous   Login
Location: The Rolnick Observatory
(41.1711°N, 73.3275°W)
Time: 17:15:50
(UTC-04:00)
Language:

Envisat - Orbit

View from above orbital plane
View from above orbital plane
View from above satellite
View from above satellite

Ground track
Ground track

The orbit data is extracted from the following two-line orbital elements,

1 27386U 02009A   20216.54022597  .00000012  00000-0  17271-4 0  9997
2 27386  98.1362 221.1133 0001419  89.1473  20.0850 14.37987783965380
Epoch (UTC): 03 August 2020 12:57:55
Eccentricity: 0.0001419
inclination: 98.1362°
perigee height: 764 km
apogee height: 766 km
right ascension of ascending node: 221.1133°
argument of perigee: 89.1473°
revolutions per day: 14.37987783
mean anomaly at epoch: 20.0850°
orbit number at epoch: 96538

The dashed part of the orbit path shows where the satellite is in the earth's shadow,  

DLR